Tiempo cada hora a/p Chisinau International Airport

Hoy, 24 Junio, Jueves

Tiempo Temperatura Precipitaciones Viento Presión Humedad
00:00 +25°C° 0 mm 1 mps 757 mmHg 81%
01:00 +25°C° 0 mm 1 mps 757 mmHg 83%
02:00 +24°C° 0 mm 1 mps 757 mmHg 85%
03:00 +24°C° 0 mm 1 mps 757 mmHg 86%
04:00 +24°C° 0 mm 1 mps 757 mmHg 87%
05:00 +23°C° 0 mm 1 mps 757 mmHg 88%
06:00 +25°C° 0 mm 2 mps 757 mmHg 83%
07:00 +26°C° 0 mm 2 mps 757 mmHg 77%
08:00 +27°C° 0 mm 2 mps 758 mmHg 72%
09:00 +29°C° 0 mm 2 mps 758 mmHg 67%
10:00 +30°C° 0 mm 2 mps 758 mmHg 62%
11:00 +31°C° 0 mm 2 mps 758 mmHg 57%
12:00 +32°C° 0 mm 2 mps 757 mmHg 54%
13:00 +34°C° 0 mm 2 mps 757 mmHg 50%
14:00 +35°C° 0 mm 2 mps 757 mmHg 46%
15:00 +35°C° 0 mm 3 mps 757 mmHg 49%
16:00 +35°C° 0 mm 3 mps 757 mmHg 51%
17:00 +35°C° 0 mm 3 mps 757 mmHg 54%
18:00 +33°C° 0 mm 3 mps 757 mmHg 61%
19:00 +30°C° 0 mm 3 mps 757 mmHg 68%
20:00 +29°C° 0 mm 2 mps 757 mmHg 75%
21:00 +28°C° 0 mm 2 mps 757 mmHg 77%
22:00 +27°C° 0 mm 2 mps 757 mmHg 79%
23:00 +27°C° 0 mm 2 mps 757 mmHg 82%

Mañana, 25 Junio, Viernes

Tiempo Temperatura Precipitaciones Viento Presión Humedad
00:00 +26°C° 0.1 mm 2 mps 756 mmHg 83%
01:00 +26°C° 0.1 mm 2 mps 756 mmHg 85%
02:00 +25°C° 0.1 mm 2 mps 756 mmHg 87%
03:00 +25°C° 0 mm 2 mps 756 mmHg 88%
04:00 +25°C° 0 mm 2 mps 756 mmHg 89%
05:00 +24°C° 0 mm 2 mps 756 mmHg 90%
06:00 +26°C° 0 mm 2 mps 756 mmHg 84%
07:00 +27°C° 0 mm 2 mps 756 mmHg 79%
08:00 +29°C° 0 mm 3 mps 756 mmHg 73%
09:00 +30°C° 0 mm 3 mps 756 mmHg 69%
10:00 +31°C° 0 mm 2 mps 756 mmHg 64%
11:00 +32°C° 0 mm 2 mps 756 mmHg 59%
12:00 +34°C° 0 mm 2 mps 756 mmHg 55%
13:00 +34°C° 0 mm 2 mps 756 mmHg 52%
14:00 +35°C° 0 mm 2 mps 756 mmHg 48%
15:00 +34°C° 0 mm 2 mps 755 mmHg 50%
16:00 +34°C° 0 mm 2 mps 755 mmHg 52%
17:00 +34°C° 0 mm 2 mps 755 mmHg 53%
18:00 +31°C° 0.2 mm 3 mps 755 mmHg 60%
19:00 +29°C° 0.2 mm 3 mps 755 mmHg 66%
20:00 +27°C° 0.2 mm 3 mps 755 mmHg 73%
21:00 +27°C° 0.5 mm 2 mps 755 mmHg 77%
22:00 +26°C° 0.5 mm 1 mps 755 mmHg 80%
23:00 +23°C° 0.5 mm 0 mps 755 mmHg 84%

Pasado mañana, 26 Junio, Sábado

Tiempo Temperatura Precipitaciones Viento Presión Humedad
00:00 +25°C° 0.1 mm 1 mps 755 mmHg 85%
01:00 +24°C° 0.1 mm 1 mps 755 mmHg 86%
02:00 +24°C° 0.1 mm 1 mps 755 mmHg 87%
03:00 +24°C° 0.1 mm 1 mps 755 mmHg 88%
04:00 +24°C° 0.1 mm 2 mps 755 mmHg 88%
05:00 +23°C° 0.1 mm 2 mps 755 mmHg 89%
06:00 +25°C° 0 mm 2 mps 755 mmHg 84%
07:00 +26°C° 0 mm 2 mps 755 mmHg 78%
08:00 +28°C° 0 mm 3 mps 756 mmHg 72%
09:00 +29°C° 0.2 mm 3 mps 756 mmHg 67%
10:00 +30°C° 0.2 mm 3 mps 755 mmHg 62%
11:00 +31°C° 0.2 mm 3 mps 755 mmHg 57%
12:00 +33°C° 0.2 mm 3 mps 755 mmHg 55%
13:00 +33°C° 0.2 mm 3 mps 755 mmHg 53%
14:00 +34°C° 0.2 mm 3 mps 755 mmHg 51%
15:00 +33°C° 0.2 mm 3 mps 754 mmHg 54%
16:00 +33°C° 0.2 mm 3 mps 754 mmHg 57%
17:00 +31°C° 0.2 mm 3 mps 754 mmHg 59%
18:00 +29°C° 0.8 mm 4 mps 754 mmHg 67%
19:00 +27°C° 0.8 mm 4 mps 754 mmHg 75%
20:00 +25°C° 0.8 mm 4 mps 754 mmHg 83%
21:00 +24°C° 1.2 mm 3 mps 754 mmHg 86%
22:00 +23°C° 1.2 mm 2 mps 755 mmHg 89%
23:00 +22°C° 1.2 mm 1 mps 755 mmHg 92%

27 Junio, Domingo

Tiempo Temperatura Precipitaciones Viento Presión Humedad
00:00 +21°C° 0.1 mm 2 mps 755 mmHg 93%
01:00 +21°C° 0.1 mm 2 mps 755 mmHg 95%
02:00 +21°C° 0.1 mm 3 mps 755 mmHg 96%
03:00 +21°C° 0 mm 3 mps 755 mmHg 96%
04:00 +20°C° 0 mm 3 mps 755 mmHg 95%
05:00 +20°C° 0 mm 3 mps 755 mmHg 95%
06:00 +22°C° 0 mm 4 mps 756 mmHg 89%
07:00 +23°C° 0 mm 4 mps 756 mmHg 84%
08:00 +25°C° 0 mm 5 mps 756 mmHg 78%
09:00 +26°C° 0 mm 5 mps 756 mmHg 74%
10:00 +27°C° 0 mm 5 mps 756 mmHg 69%
11:00 +29°C° 0 mm 6 mps 756 mmHg 64%
12:00 +29°C° 0 mm 6 mps 756 mmHg 62%
13:00 +29°C° 0 mm 5 mps 756 mmHg 61%
14:00 +30°C° 0 mm 5 mps 756 mmHg 59%
15:00 +29°C° 0 mm 5 mps 756 mmHg 62%
16:00 +29°C° 0 mm 5 mps 756 mmHg 66%
17:00 +28°C° 0 mm 5 mps 756 mmHg 69%
18:00 +27°C° 0 mm 4 mps 756 mmHg 73%
19:00 +26°C° 0 mm 4 mps 756 mmHg 78%
20:00 +25°C° 0 mm 3 mps 756 mmHg 82%
21:00 +24°C° 0 mm 3 mps 756 mmHg 84%
22:00 +22°C° 0 mm 3 mps 757 mmHg 86%
23:00 +22°C° 0 mm 4 mps 757 mmHg 88%

28 Junio, Lunes

Tiempo Temperatura Precipitaciones Viento Presión Humedad
00:00 +21°C° 0 mm 3 mps 757 mmHg 89%
01:00 +21°C° 0 mm 3 mps 757 mmHg 90%
02:00 +21°C° 0 mm 3 mps 757 mmHg 91%
03:00 +21°C° 0 mm 3 mps 757 mmHg 91%
04:00 +20°C° 0 mm 3 mps 757 mmHg 92%
05:00 +20°C° 0 mm 4 mps 758 mmHg 92%
06:00 +22°C° 0 mm 4 mps 758 mmHg 87%
07:00 +23°C° 0 mm 5 mps 758 mmHg 82%
08:00 +25°C° 0 mm 5 mps 758 mmHg 77%
09:00 +26°C° 0 mm 6 mps 758 mmHg 72%
10:00 +27°C° 0 mm 6 mps 758 mmHg 67%
11:00 +27°C° 0 mm 6 mps 758 mmHg 62%
12:00 +28°C° 0 mm 6 mps 758 mmHg 59%
13:00 +28°C° 0 mm 5 mps 758 mmHg 57%
14:00 +29°C° 0 mm 5 mps 758 mmHg 54%
15:00 +29°C° 0 mm 5 mps 758 mmHg 56%
16:00 +29°C° 0 mm 4 mps 758 mmHg 58%
17:00 +28°C° 0 mm 4 mps 758 mmHg 60%
18:00 +27°C° 0 mm 3 mps 758 mmHg 64%
19:00 +26°C° 0 mm 3 mps 758 mmHg 68%
20:00 +25°C° 0 mm 2 mps 758 mmHg 72%
21:00 +24°C° 0 mm 2 mps 758 mmHg 73%
22:00 +23°C° 0 mm 2 mps 758 mmHg 74%
23:00 +23°C° 0 mm 2 mps 759 mmHg 75%

29 Junio, Martes

Tiempo Temperatura Precipitaciones Viento Presión Humedad
00:00 +21°C° 0 mm 2 mps 759 mmHg 77%
01:00 +21°C° 0 mm 2 mps 759 mmHg 79%
02:00 +20°C° 0 mm 2 mps 758 mmHg 81%
03:00 +20°C° 0 mm 2 mps 759 mmHg 82%
04:00 +20°C° 0 mm 2 mps 759 mmHg 83%
05:00 +19°C° 0 mm 2 mps 759 mmHg 84%
06:00 +21°C° 0 mm 3 mps 759 mmHg 77%
07:00 +24°C° 0 mm 3 mps 759 mmHg 71%
08:00 +25°C° 0 mm 3 mps 759 mmHg 64%
09:00 +26°C° 0 mm 3 mps 759 mmHg 59%
10:00 +28°C° 0 mm 3 mps 759 mmHg 54%
11:00 +29°C° 0 mm 3 mps 759 mmHg 49%
12:00 +29°C° 0 mm 3 mps 759 mmHg 47%
13:00 +30°C° 0 mm 3 mps 759 mmHg 46%
14:00 +30°C° 0 mm 3 mps 758 mmHg 44%
15:00 +30°C° 0 mm 3 mps 758 mmHg 45%
16:00 +30°C° 0 mm 3 mps 758 mmHg 46%
17:00 +30°C° 0 mm 3 mps 758 mmHg 48%
18:00 +28°C° 0 mm 3 mps 758 mmHg 54%
19:00 +27°C° 0 mm 2 mps 758 mmHg 61%
20:00 +25°C° 0 mm 2 mps 759 mmHg 67%
21:00 +24°C° 0 mm 1 mps 759 mmHg 68%
22:00 +24°C° 0 mm 1 mps 759 mmHg 69%
23:00 +23°C° 0 mm 1 mps 759 mmHg 71%
Mostrar más

Necesitamos Su Consentimiento

Meteoprog y nuestros Proveedores de Servicios pueden almacenar y acceder a sus datos personales como cookies, identificadores de dispositivo u otras tecnologías similares de su dispositivo y procesar dichos datos para personalizar contenido y anuncios, además de ofrecer funciones de redes sociales y analizar el tráfico.

  • Almacenar y/o acceder a información en su dispositivo

    Se puede almacenar o acceder a cookies, identificadores de dispositivo u otra información de su dispositivo para los fines anteriormente indicados.

  • Anuncios y contenido personalizados, medición de anuncios y contenido, percepciones del público, y desarrollo de productos

    Los anuncios y el contenido pueden personalizarse en base a su perfil. Se pueden añadir más datos para personalizar mejor los anuncios y contenidos. Se puede medir el rendimiento de los anuncios y contenidos. Se puede obtener la percepción sobre el público que ha visto los anuncios y contenidos. Dichos datos pueden usarse para desarrollar o mejorar la experiencia del usuario, sistemas y software.

Al hacer clic en ‘Estoy De Acuerdo’ usted permitirá el uso de las cookies, identificadores de dispositivo, balizas web u otras tecnologías similares indicadas. Su configuración puede cambiarse desde el navegador de su dispositivo.

Para ciertos fines, los intereses legítimos pueden ser considerados por encima del consentimiento. Puede leer más sobre ello en nuestra Política de Privacidad y Cookies.